This demonstration page uses our WeatherBlox Daily Observations layout. Learn more.

Left ArrowRight Arrow

Hourly Observations for July 10, 2015

Temp ( °F °C ) Dew Point ( °F °C ) Humidity (%) Winds ( mph kmh ) Pressure ( in mb ) Visibility ( mi km ) Precip ( " mm )
12:29 am 00:29 Cloudy 70 21.1 68 20 93 93 S 6 9 30.03 1017 10 16 0.00 0.00
12:52 am 00:52 Cloudy 70 21.1 68 20 93 93 S 6 9 30.02 1017 10 16 0.00 0.00
1:26 am 01:26 Mostly Cloudy 70 21 68 20 94 94 SSW 3 6 30.03 1017 10 16 0.00 0.00
1:52 am 01:52 Cloudy with Light Rain 70 21.1 68 20 93 93 SW 5 7 30.02 1017 10 16 0.00 0.03
2:18 am 02:18 Cloudy with Rain 70 21 68 20 94 94 SW 6 9 30.03 1017 3 4 0.00 0.00
2:22 am 02:22 Cloudy with Light Rain 70 21 68 20 94 94 WSW 6 9 30.03 1017 7 11 0.00 0.00
2:29 am 02:29 Cloudy with Light Rain 70 21.1 68 20 93 93 SW 6 9 30.03 1017 10 16 0.11 2.79
2:52 am 02:52 Cloudy with Light Rain 70 21.1 68 20 93 93 SW 5 7 30.03 1017 8 13 0.12 3.05
3:29 am 03:29 Cloudy 70 21.1 68 20 93 93 WNW 7 11 30.03 1017 10 16 0.01 0.25
3:36 am 03:36 Cloudy 70 21 68 20 94 94 W 3 6 30.03 1017 10 16 0.00 0.00
3:52 am 03:52 Mostly Cloudy with Nearby Thunderstorms 70 21.1 68 20 93 93 WSW 3 6 30.03 1017 10 16 0.01 0.25
4:08 am 04:08 Mostly Cloudy with Nearby Thunderstorms 70 21 68 20 94 94 SW 6 9 30.03 1017 9 14 0.00 0.00
4:20 am 04:20 Cloudy with Rain 70 21 70 21 100 100 Calm 30.03 1017 3 4 0.00 0.00
4:29 am 04:29 Cloudy with Light Rain 70 21.1 68 20 93 93 NW 3 6 30.03 1017 3 5 0.09 2.29
4:43 am 04:43 Cloudy with Light Rain 70 21.1 69 20.6 97 97 Calm 30.03 1017 6 10 0.09 2.29
4:52 am 04:52 Cloudy with Light Rain 70 21.1 69 20.6 97 97 W 3 6 30.05 1018 6 10 0.11 2.79
5:18 am 05:18 Cloudy 70 21.1 69 20.6 97 97 Calm 30.06 1018 10 16 0.00 0.03
5:25 am 05:25 Mostly Cloudy with Nearby Thunderstorms 70 21.1 69 20.6 97 97 SSE 5 7 30.06 1018 10 16 0.00 0.03
5:40 am 05:40 Cloudy 70 21 70 21 100 100 SSE 3 6 30.06 1018 10 16 0.00 0.00
5:46 am 05:46 Cloudy 70 21 70 21 100 100 SSE 3 6 30.06 1018 9 14 0.00 0.00
5:52 am 05:52 Cloudy 70 21.1 68 20 93 93 SSE 3 6 30.06 1018 9 14 0.00 0.03
6:52 am 06:52 Partly Cloudy with Mist and Fog 71 21.7 69 20.6 94 94 SSE 5 7 30.07 1018 6 10 0.00 0.00
7:52 am 07:52 Cloudy 71 21.7 70 21.1 96 96 S 6 9 30.09 1019 9 14 0.00 0.00
8:26 am 08:26 Partly Cloudy 73 23 72 22 94 94 S 8 13 30.09 1019 10 16 0.00 0.00
8:52 am 08:52 Sunny 75 23.9 71 21.7 88 88 SSE 7 11 30.09 1019 10 16 0.00 0.00
9:06 am 09:06 Mostly Sunny 75 24 72 22 89 89 S 8 13 30.06 1018 10 16 0.00 0.00
9:52 am 09:52 Mostly Cloudy 76 24.4 71 21.7 85 85 S 8 13 30.10 1019 10 16 0.00 0.00
10:52 am 10:52 Sunny 81 27.2 72 22.2 74 74 SSW 9 15 30.09 1019 10 16 0.00 0.00
11:52 am 11:52 Sunny 84 28.9 69 20.6 61 61 SW 16 26 30.09 1019 10 16 0.00 0.00
12:52 pm 12:52 Sunny 85 29.4 70 21.1 61 61 SW 12 19 30.08 1019 10 16 0.00 0.00
1:52 pm 13:52 Sunny 87 30.6 70 21.1 57 57 SW 9 15 30.06 1018 10 16 0.00 0.00
2:52 pm 14:52 Sunny 86 30 71 21.7 61 61 SW 7 11 30.05 1018 10 16 0.00 0.00
3:52 pm 15:52 Mostly Sunny 85 29.4 71 21.7 63 63 SSW 8 13 30.04 1017 10 16 0.00 0.00
4:52 pm 16:52 Sunny 87 30.6 68 20 53 53 SW 10 17 30.03 1017 10 16 0.00 0.00
5:52 pm 17:52 Sunny 85 29.4 70 21.1 61 61 S 8 13 30.03 1017 10 16 0.00 0.00
6:52 pm 18:52 Sunny 83 28.3 71 21.7 67 67 S 5 7 30.04 1017 10 16 0.00 0.00
7:52 pm 19:52 Sunny 81 27.2 71 21.7 72 72 SSE 6 9 30.04 1017 10 16 0.00 0.00
8:52 pm 20:52 Clear 79 26.1 71 21.7 77 77 SSE 7 11 30.04 1017 10 16 0.00 0.00
9:52 pm 21:52 Clear 79 26.1 71 21.7 77 77 SSE 7 11 30.05 1018 10 16 0.00 0.00
10:52 pm 22:52 Clear 78 25.6 71 21.7 79 79 S 7 11 30.05 1018 10 16 0.00 0.00
11:52 pm 23:52 Clear 78 25.6 71 21.7 79 79 SSE 9 15 30.05 1018 10 16 0.00 0.00

Powered by AerisWeather